This is the latest recevied weather packets stored in our database for station/object 4S6DRJ-13. If no packets are shown the sender has not sent any weather packets the latest 10 day(s).
| Time | Temp. | Humidity | Pressure | Rain* | Wind** | Luminosity | Snow |
|---|---|---|---|---|---|---|---|
| 1788278945 | 28.33° C | 83% | 1011.4 hPa | 0 mm | 1.34 m/s, 183° | 0 W/m² | - |
| 1788278884 | 28.33° C | 83% | 1011.1 hPa | 0 mm | 1.34 m/s, 300° | 0 W/m² | - |
| 1788278827 | 28.33° C | 83% | 1011.2 hPa | 0 mm | 1.34 m/s, 241° | 0 W/m² | - |
| 1788278762 | 28.33° C | 83% | 1011.1 hPa | 0 mm | 0.89 m/s, 226° | 0 W/m² | - |
| 1788278701 | 28.33° C | 83% | 1011.3 hPa | 0 mm | 1.34 m/s, 191° | 0 W/m² | - |
| 1788278640 | 28.33° C | 83% | 1011.4 hPa | 0 mm | 0.45 m/s, 239° | 0 W/m² | - |
| 1788278579 | 28.33° C | 83% | 1011.3 hPa | 0 mm | 0.89 m/s, 238° | 0 W/m² | - |
| 1788278518 | 28.33° C | 83% | 1011.2 hPa | 0 mm | 0.45 m/s, 225° | 0 W/m² | - |
| 1788278457 | 28.33° C | 83% | 1011.1 hPa | 0 mm | 1.34 m/s, 198° | 0 W/m² | - |
| 1788278396 | 28.33° C | 83% | 1011.2 hPa | 0 mm | 1.34 m/s, 271° | 0 W/m² | - |
| 1788278335 | 28.33° C | 83% | 1011.2 hPa | 0 mm | 2.24 m/s, 188° | 0 W/m² | - |
| 1788278274 | 28.33° C | 83% | 1011 hPa | 0 mm | 1.34 m/s, 197° | 0 W/m² | - |
| 1788278213 | 28.33° C | 83% | 1011.1 hPa | 0 mm | 1.34 m/s, 257° | 0 W/m² | - |
| 1788278152 | 28.33° C | 83% | 1011 hPa | 0 mm | 1.79 m/s, 220° | 0 W/m² | - |
| 1788278091 | 28.33° C | 83% | 1010.9 hPa | 0 mm | 0.45 m/s, 231° | 0 W/m² | - |
| 1788278030 | 28.33° C | 83% | 1010.8 hPa | 0 mm | 2.68 m/s, 231° | 0 W/m² | - |
| 1788277969 | 28.33° C | 83% | 1011 hPa | 0 mm | 1.34 m/s, 152° | 0 W/m² | - |
| 1788277908 | 28.33° C | 83% | 1011 hPa | 0 mm | 0.89 m/s, 202° | 0 W/m² | - |
| 1788277847 | 28.33° C | 83% | 1011 hPa | 0 mm | 0.89 m/s, 291° | 0 W/m² | - |
| 1788277786 | 28.33° C | 83% | 1010.8 hPa | 0 mm | 0.45 m/s, 209° | 0 W/m² | - |
| 1788277725 | 28.33° C | 83% | 1010.8 hPa | 0 mm | 0.45 m/s, 243° | 0 W/m² | - |
| 1788277664 | 28.33° C | 83% | 1010.7 hPa | 0 mm | 0.89 m/s, 225° | 0 W/m² | - |
| 1788277603 | 28.33° C | 83% | 1010.9 hPa | 0 mm | 0.45 m/s, 226° | 0 W/m² | - |
| 1788277542 | 28.33° C | 83% | 1010.9 hPa | 0 mm | 0.89 m/s, 224° | 0 W/m² | - |
| 1788277481 | 28.33° C | 82% | 1010.8 hPa | 0 mm | 0.89 m/s, 232° | 0 W/m² | - |
* Rain latest hour (hover to see other rain measurements)
** Current wind speed in m/s (hover to see current wind gust speed)